Location: Deneb Observatory
(47.2267°N, 100.4953°W)
Time: 01:32:48
(UTC-05:00)

Iridium 66 - Visible Passes

Search period start: 26 July 2016 00:00
Search period end: 05 August 2016 00:00
Orbit: 776 x 779 km, 86.4° (Epoch: 25 July)

Date Brightness Start Highest point End Pass type
(mag) Time Alt. Az. Time Alt. Az. Time Alt. Az.
26 Jul 6.6 05:13:03 10° SSE 05:18:10 60° E 05:23:19 10° N visible
27 Jul 7.6 04:40:08 10° SSE 04:44:48 34° E 04:49:29 10° NNE visible
28 Jul 8.4 04:07:48 10° SE 04:11:33 20° ENE 04:15:19 10° NNE visible
29 Jul 8.8 03:36:38 10° E 03:38:25 12° ENE 03:40:12 10° NE visible
29 Jul 6.1 05:13:02 10° S 05:18:15 84° E 05:23:30 10° N visible
30 Jul 7.0 04:39:50 10° SSE 04:44:48 48° E 04:49:49 10° NNE visible
31 Jul 7.9 04:07:07 10° SE 04:11:29 28° E 04:15:52 10° NNE visible
01 Aug 8.5 03:35:06 10° ESE 03:38:17 17° ENE 03:41:29 10° NE visible
01 Aug 6.0 05:13:11 10° S 05:18:23 71° W 05:23:36 10° N visible
02 Aug 6.3 04:39:42 10° S 04:44:52 68° E 04:50:04 10° N visible
03 Aug 7.3 04:06:41 10° SSE 04:11:28 39° E 04:16:17 10° NNE visible
04 Aug 8.1 03:34:12 10° SE 03:38:12 23° E 03:42:12 10° NNE visible
04 Aug 6.3 05:13:43 11° SSW 05:18:33 50° W 05:23:39 10° N visible
